Regional Weather Roundup
Issued by NWS

Home | Current Version | Previous Version | Graphics & Text | Print | Product List | Glossary On
Versions: 1 2 3 4 5 6 7 8 9 10 11 12 13 14 15 16 17 18 19 20 21 22 23 24 25 26 27 28 29 30 31 32 33 34 35 36 37 38 39 40 41 42 43 44 45 46 47 48 49 50
000
ASUS43 KMPX 261901
RWRMN
WEATHER ROUNDUP FOR MINNESOTA
NATIONAL WEATHER SERVICE TWIN CITIES/CHANHASSEN MN
100 PM CST WED NOV 26 2014


NOTE: "FAIR" INDICATES FEW OR NO CLOUDS BELOW 12,000 FEET WITH NO
SIGNIFICANT WEATHER AND/OR OBSTRUCTIONS TO VISIBILITY. N/A MEANS
CURRENT SKY AND/OR WEATHER CONDITIONS ARE NOT AVAILABLE.

MNZ060>063-068>070-262000-
   Twin Cities Metro

CITY           SKY/WX    TMP DP  RH WIND       PRES   REMARKS
TWIN CITIES    LGT SNOW  26  21  81 N8        30.19R WCI  18
ST PAUL        CLOUDY    26  21  81 N10       30.20R WCI  16
CRYSTAL        LGT SNOW  26  20  77 N7        30.18S WCI  18
BLAINE         LGT SNOW  27  23  86 N8        30.19R WCI  18
LAKEVILLE      MIX PCPN  23  21  93 NE5       30.17R WCI  17
EDEN PRAIRIE   LGT SNOW  27  21  78 N8        30.17R WCI  19
SOUTH ST PAUL  LGT SNOW  27  22  81 N6        30.18R WCI  21
LAKE ELMO      FLURRIES  28  23  80 N3        30.19R
$$
MNZ001>005-007-008-013>017-022>024-027-028-262000-
   Northwest Minnesota

CITY           SKY/WX    TMP DP  RH WIND       PRES   REMARKS
BEMIDJI        SUNNY      7  -8  49 N8        30.28S WCI  -6
HALLOCK        SUNNY      0  -9  65 N13       30.45S WCI -18
ROSEAU         SUNNY      1  -9  60 NW8       30.39S WCI -12
WARROAD        SUNNY      1  -8  66 NW7       30.37S WCI -11
THIEF RVR FALL SUNNY      1  -8  66 NW14      30.38R WCI -17
CROOKSTON      SUNNY      1  -6  71 N15       30.44R WCI -18
FOSSTON        SUNNY      5  -6  61 NW10      30.35R WCI -10
DETROIT LAKES  SUNNY      9   1  72 N14G20    30.31R WCI  -8
MOORHEAD       MOSUNNY    5   0  78 N17       30.40R WCI -14
PARK RAPIDS    SUNNY     13   2  61 N10       30.25R WCI   0
MAHNOMEN       FAIR       4  -4  67 N15       30.33S WCI -14
$$
MNZ006-009>011-018-025>026-262000-
   North Central Minnesota

CITY           SKY/WX    TMP DP  RH WIND       PRES   REMARKS
BAUDETTE       SUNNY     -1  -9  68 NW15      30.34S WCI -21
FLAG ISLAND    SUNNY     -2  -9  71 NW12      30.37S WCI -20
INTL FALLS     SUNNY      7  -4  60 N10       30.30R WCI  -8
WASKISH        SUNNY      7   0  72 NW5       30.32R WCI  -2
BIG FORK       SUNNY     12  -2  52 N9        30.25F WCI   0
LONGVILLE      MOSUNNY   14   3  62 N8        30.25R WCI   3
GRAND RAPIDS   MOSUNNY   12   3  67 N13       30.22R WCI  -3
CRANE LAKE     MOSUNNY   10  -2  56 NW7       30.28R WCI   0
ORR            PTSUNNY   12   0  57 NW6       30.22R WCI   3
COOK           CLOUDY    12   3  67 NW7       30.23R WCI   2
WALKER         FAIR      12   1  61 NW8       30.27R WCI   0
$$
MNZ012-019>021-037-262000-
   Northeast Minnesota

CITY           SKY/WX    TMP DP  RH WIND       PRES   REMARKS
DULUTH         FLURRIES  18   9  68 N10       30.17R WCI   6
ELY            LGT SNOW  14   7  73 NW6       30.19R WCI   5
HIBBING        FLURRIES  16   6  65 N15       30.21S WCI   1
EVELETH        LGT SNOW  18  10  73 NW10      30.21R WCI   6
DULUTH HARBOR  PTSUNNY   23  12  63 CALM      30.23R
TWO HARBORS    CLOUDY    23  12  63 NW7       30.17R WCI  15
SILVER BAY     PTSUNNY   23  10  58 W6        30.16R WCI  16
GRAND MARAIS     N/A     21   9  59 N9G20     30.20R WCI  11
G MARAIS ARPRT LGT SNOW  12   5  73 N12       30.11S WCI  -2
$$
MNZ029>031-032-039>041-046>048-054>057-064-262000-
   West Central Minnesota

CITY           SKY/WX    TMP DP  RH WIND       PRES   REMARKS
FERGUS FALLS   MOSUNNY   10   1  67 N12G26    30.34R WCI  -4
WHEATON        SUNNY      9   1  72 NW16G25   30.36R WCI  -9
MORRIS         CLOUDY    12   7  79 NW21G28   30.27R WCI  -6
ALEXANDRIA     PTSUNNY   19  10  68 N13       30.23S WCI   6
WADENA         MOSUNNY   18   7  62 N9        30.24S WCI   6
GLENWOOD       SUNNY     21  12  68 NW10      30.23R WCI  10
APPLETON       CLOUDY    12   7  79 NW21      30.29R HAZE    WCI  -6
BENSON         MOSUNNY   16  10  79 N20       30.26R WCI  -1
ORTONVILLE     CLOUDY    10   3  72 NW20      30.31R HAZE    WCI  -8
MADISON        LGT SNOW  16   9  73 NW23      30.30R WCI  -2
WILLMAR        CLOUDY    23  16  74 N13       30.23R WCI  11
$$
MNZ033>034-036-042>043-049>051-058-059-262000-
   Central Minnesota

CITY           SKY/WX    TMP DP  RH WIND       PRES   REMARKS
ST CLOUD       CLOUDY    24  16  71 N10       30.21R WCI  14
SAUK CENTRE    MOCLDY    20  13  73 N12       30.23R WCI   8
PAYNESVILLE    CLOUDY    19  14  81 NW9       30.22S WCI   8
AITKIN         SUNNY     23  10  58 N8        30.20S WCI  14
PINE RIVER     MOSUNNY   16   7  67 N10       30.27S WCI   3
BRAINERD       SUNNY     18   9  68 N14       30.22S WCI   4
STAPLES        SUNNY     18   9  68 N9        30.24R WCI   6
LONG PRAIRIE   FAIR      19  12  73 NW10      30.22S WCI   8
LITTLE FALLS   MOSUNNY   21  10  63 N7        30.22S WCI  13
LITCHFIELD     PTSUNNY   25  18  74 N12       30.20S WCI  14
BUFFALO        PTSUNNY   24  18  78 N8        30.21S WCI  14
MAPLE LAKE     CLOUDY    26  20  78 N10       30.21R WCI  16
$$
MNZ037-044-045-052-053-262000-
   East Central Minnesota

CITY           SKY/WX    TMP DP  RH WIND       PRES   REMARKS
PRINCETON      PTSUNNY   25  18  74 NW9       30.19F WCI  15
MORA           PTSUNNY   25  16  68 N5        30.22R WCI  19
CAMBRIDGE      PTSUNNY   27  16  63 NW9       30.18S WCI  17
RUSH CITY      CLOUDY    25  17  70 N10       30.20S WCI  15
MOOSE LAKE     CLOUDY    21  12  68 N7        30.19R WCI  13
HINCKLEY       CLOUDY    27  18  69 N9        30.20R WCI  17
CLOQUET        CLOUDY    18  10  73 NW10      30.19R WCI   6
MCGREGOR       PTSUNNY   21  12  68 N10       30.22S WCI  10
$$
MNZ071>073-080-081-089-090-097-098-262000-
   Southwest Minnesota

CITY           SKY/WX    TMP DP  RH WIND       PRES   REMARKS
MONTEVIDEO     CLOUDY    14  10  85 N16       30.28R WCI  -2
GRANITE FALLS  CLOUDY    18  13  82 NW17      30.27R WCI   2
CANBY          LGT SNOW  13   8  83 NW15      30.29S WCI  -3
MARSHALL       CLOUDY    14   7  73 N20       30.24R WCI  -3
REDWOOD FALLS  CLOUDY    22  16  78 NW15G21   30.22R WCI   9
OLIVIA         MOSUNNY   27  19  74 N9        30.21R WCI  17
PIPESTONE      CLOUDY    18  12  79 N10G18    30.21R WCI   6
WINDOM         CLOUDY    19  18  93 NW21      30.17R FOG     WCI   3
WORTHINGTON    CLOUDY    18  14  86 N22       30.17R WCI   0
JACKSON        LGT SNOW  25  21  86 N15G25    30.14R WCI  12
TRACY          CLOUDY    16  12  86 NW16G25   30.22R FOG     WCI   0
SLAYTON        CLOUDY    16  14  91 N16G24    30.19R FOG     WCI   0
$$
MNZ065>067-074>077-082>085-091>093-262000-
   South Central Minnesota

CITY           SKY/WX    TMP DP  RH WIND       PRES   REMARKS
MANKATO        CLOUDY    25  19  80 N12       30.16R VSB 3/4 WCI  14
NEW ULM        LGT SNOW  25  21  86 N9        30.17R WCI  15
ST JAMES       LGT SNOW  25  21  86 N16       30.18R WCI  12
FAIRMONT       CLOUDY    25  19  80 N15       30.13R VSB 1   WCI  12
GLENCOE        CLOUDY    26  22  87 N8        30.18R FOG     WCI  17
FARIBAULT      LGT SNOW  25  21  86 N8        30.16R VSB 1   WCI  16
OWATONNA       LGT SNOW  25  21  86 NE7       30.14R WCI  17
WASECA         LGT SNOW  23  19  86 N12       30.15R WCI  12
ALBERT LEA     LGT SNOW  25  21  86 NE13      30.11R VSB 3/4 WCI  13
$$
MNZ078>079-086>088-094>096-262000-
   Southeast Minnesota

CITY           SKY/WX    TMP DP  RH WIND       PRES   REMARKS
ROCHESTER      SNOW      24  20  84 NE10      30.12R VSB 1/2 WCI  14
RED WING       LGT SNOW  27  21  80 NE7       30.16S VSB 1   WCI  19
STANTON        LGT SNOW  25  22  87 N9        30.16R VSB 3/4 WCI  16
DODGE CENTER   LGT SNOW  23  21  93 NE8       30.12R VSB 1   WCI  14
WINONA         LGT SNOW  28  23  80 CALM      30.17R
AUSTIN         LGT SNOW  25  21  86 NE10      30.11R WCI  15
PRESTON        CLOUDY    25  19  80 N6        30.10R HAZE    WCI  18
$$
ABBREVIATIONS USED IN REMARKS
   TC - TEMPERATURES IN CELSIUS
  WCI - WIND CHILL INDEX
   HX - HEAT INDEX
  VSB - VISIBILITY
$$


USA.gov is the U.S. government's official web portal to all federal, state and local government web resources and services.